This is the latest recevied weather packets stored in our database for station/object SR6WVX. If no packets are shown the sender has not sent any weather packets the latest 10 day(s).
| Time | Temp. | Humidity | Pressure | Rain* | Wind** | Luminosity | Snow |
|---|---|---|---|---|---|---|---|
| 1777568774 | 17.78° C | 34% | 1023.5 hPa | 0 mm | - | - | - |
| 1777568474 | 17.78° C | 34% | 1023.4 hPa | 0 mm | - | - | - |
| 1777568174 | 17.78° C | 33% | 1023.5 hPa | 0 mm | - | - | - |
| 1777567874 | 17.78° C | 33% | 1023.7 hPa | 0 mm | - | - | - |
| 1777567573 | 18.33° C | 32% | 1023.6 hPa | 0 mm | - | - | - |
| 1777567273 | 19.44° C | 32% | 1023.7 hPa | 0 mm | - | - | - |
| 1777566973 | 19.44° C | 32% | 1023.5 hPa | 0 mm | - | - | - |
| 1777566673 | 18.89° C | 32% | 1023.5 hPa | 0 mm | - | - | - |
| 1777566372 | 18.89° C | 32% | 1023.5 hPa | 0 mm | - | - | - |
| 1777566072 | 18.33° C | 32% | 1023.6 hPa | 0 mm | - | - | - |
| 1777565772 | 18.89° C | 32% | 1023.4 hPa | 0 mm | - | - | - |
| 1777565471 | 18.89° C | 32% | 1023.6 hPa | 0 mm | - | - | - |
| 1777565171 | 18.33° C | 32% | 1023.6 hPa | 0 mm | - | - | - |
| 1777564871 | 18.89° C | 31% | 1023.6 hPa | 0 mm | - | - | - |
| 1777564571 | 19.44° C | 31% | 1023.6 hPa | 0 mm | - | - | - |
| 1777564271 | 19.44° C | 31% | 1023.7 hPa | 0 mm | - | - | - |
| 1777563970 | 19.44° C | 31% | 1023.8 hPa | 0 mm | - | - | - |
| 1777563670 | 19.44° C | 30% | 1023.8 hPa | 0 mm | - | - | - |
| 1777563370 | 20° C | 30% | 1023.9 hPa | 0 mm | - | - | - |
| 1777563069 | 20° C | 30% | 1023.7 hPa | 0 mm | - | - | - |
| 1777562769 | 20.56° C | 29% | 1023.7 hPa | 0 mm | - | - | - |
| 1777562469 | 21.11° C | 30% | 1023.9 hPa | 0 mm | - | - | - |
| 1777562169 | 20.56° C | 30% | 1023.9 hPa | 0 mm | - | - | - |
| 1777561868 | 20° C | 30% | 1023.7 hPa | 0 mm | - | - | - |
| 1777561568 | 18.89° C | 32% | 1023.9 hPa | 0 mm | - | - | - |
* Rain latest hour (hover to see other rain measurements)
** Current wind speed in m/s (hover to see current wind gust speed)